Weather Roundup
Issued by NWS

Home | Current Version | Previous Version | Graphics & Text | Print | Product List | Glossary Off
Versions: 1 2 3 4 5 6 7 8 9 10 11 12 13 14 15 16 17 18 19 20 21 22 23 24 25 26 27 28 29 30 31 32 33 34 35 36 37 38 39 40 41 42 43 44 45 46 47 48 49 50

000
NZUS93 KARX 031910
HRRWXR

CURRENT HOURLY OBSERVATIONS ACROSS
MUCH OF THE UPPER MISSISSIPPI VALLEY
NATIONAL WEATHER SERVICE LA CROSSE WI
100 PM CST TUE MAR 03 2015


...SOUTHEAST MINNESOTA...


CITY           SKY/WX    TMP DP  RH WIND       PRES   REMARKS
ROCHESTER      NOT AVBL
ROCHESTER/MAYO NOT AVBL
WINONA         CLOUDY    32  27  80 NW9       29.66F WCI  24
AUSTIN         CLOUDY    30  25  80 NW15G22   29.66S WCI  19
ALBERT LEA     NOT AVBL
DODGE CENTER   CLOUDY    28  25  86 NW17G24   29.64S WCI  16
PRESTON        CLOUDY    28  23  83 NW15G21   29.64F WCI  16
OWATONNA       CLOUDY    28  23  80 NW24      29.69R HAZE    WCI  14
FARIBAULT      NOT AVBL
$$

...ELSEWHERE IN MINNESOTA...


CITY           SKY/WX    TMP DP  RH WIND       PRES   REMARKS
MINNEAPOLIS    NOT AVBL
INTNL FALLS    NOT AVBL
DULUTH         LGT SNOW  25  18  74 NW15G25   29.54F BLWGSNOWWCI  13
RED WING       NOT AVBL
REDWOOD FALLS  LGT SNOW  21  12  68 NW25G38   29.81S WCI   4
MANKATO        CLOUDY    25  18  74 NW21G33   29.73R WCI  10
FAIRMONT       CLOUDY    25  18  74 NW24G37   29.74R WCI   9
$$

...SOUTHWEST WISCONSIN...


CITY           SKY/WX    TMP DP  RH WIND       PRES   REMARKS
LA CROSSE      NOT AVBL
PRAIRIE DU CHI CLOUDY    29  27  93 CALM      29.67S FOG
BOSCOBEL       NOT AVBL
LONE ROCK      NOT AVBL
PLATTEVILLE    CLOUDY    32  30  94 SW14      29.64F WCI  22
FORT MC COY    CLOUDY    27  25  93 W8        29.65S WCI  18
CAMP DOUGLAS   CLOUDY    28  28 100 W15       29.61F WCI  17
VIROQUA        CLOUDY    27  27 100 W14       29.62F WCI  16
WIS DELLS      NOT AVBL
$$

...ELSEWHERE IN WISCONSIN...


CITY           SKY/WX    TMP DP  RH WIND       PRES   REMARKS
MILWAUKEE      NOT AVBL
MADISON        CLOUDY    31  27  85 SW7       29.62F FOG     WCI  24
GREEN BAY      NOT AVBL
EAU CLAIRE     NOT AVBL
BLACK RVR FLS  CLOUDY    27  23  84 W12       29.63S WCI  17
MEDFORD        LGT SNOW  24  18  76 W8        29.58F WCI  15
WAUSAU         NOT AVBL
WIS RAPIDS     NOT AVBL
MARSHFIELD     NOT AVBL
RICE LAKE      LGT SNOW  27  20  75 W12       29.62F WCI  17
$$

...NORTHEAST IOWA...


CITY           SKY/WX    TMP DP  RH WIND       PRES   REMARKS
DECORAH        CLOUDY    28  27  93 W8G16     29.64F WCI  20
MASON CITY     CLOUDY    31  25  78 NW25      29.71R WCI  17
CHARLES CITY   CLOUDY    30  28  93 NW15G23   29.69R WCI  19
OELWEIN        CLOUDY    30  28  93 W18G24    29.67S WCI  18
$$

...ELSEWHERE IN IOWA...


CITY           SKY/WX    TMP DP  RH WIND       PRES   REMARKS
DES MOINES     CLOUDY    35  29  78 NW20G28   29.76R WCI  24
IOWA CITY      CLOUDY    34  31  88 W14       29.72R WCI  25
FORT DODGE     CLOUDY    34  27  75 NW10G21   29.75R WCI  26
$$

...NORTHERN ILLINOIS...


CITY           SKY/WX    TMP DP  RH WIND       PRES   REMARKS
CHICAGO-OHARE  FRZ DRZL  32  31  96 SW12G18   29.62F FOG     WCI  23
CHICAGO-MIDWAY NOT AVBL
MOLINE         NOT AVBL
ROCKFORD       DRIZZLE   32  29  88 W16G22    29.66S FOG     WCI  21
PEORIA         CLOUDY    36  33  89 SW15      29.72F FOG     WCI  27
$$

NOTE: "FAIR" INDICATES FEW OR NO CLOUDS BELOW 12,000 FEET WITH NO
SIGNIFICANT WEATHER AND/OR OBSTRUCTIONS TO VISIBILITY. WIND
SPEEDS ARE IN MILES-PER-HOUR.



USA.gov is the U.S. government's official web portal to all federal, state and local government web resources and services.